OneWeb SL0421

operational
NORAD ID: 50496 Int'l Des: 2021-132 Owner: ONEWEBN Country: UK Constellation: oneweb
LEOCIRCULARPOLARONEWEB_TYPE

About OneWeb SL0421

Description loading...

Live Position

Loading 3D Globe...

Upcoming Passes

Altitude History

Altitude vs Time

uPlot chart will show altitude changes over time

Two-Line Element Set

1 50496U 21132AD 25344.83999642 .00000093 00000-0 20400-3 0 9992
2 50496 87.9183 12.8638 0002020 100.7935 259.3425 13.18685393196798
Epoch: Dec 10, 2025 • Age: 10 hours

Current Status

Altitude 1220.0 km
Velocity 7.24 km/s
Sub-Earth Point -86.08°S, 160.98°E
Launch Date Dec 27, 2021
Age 3.9 years
Type internet

Technical Details

Classification Payload
Mass 148.00 kg
Dry Mass 140.00 kg
Total Mass 148.00 kg
Length 1.30 m
Diameter 1.00 m
Span 5.00 m
Shape Trapezoid+2 pan
Manufacturer ONEWUS
Bus Type ARROW
Phase Status In Orbit
Owner/State ONEWEBN/UK

Large Constellations

Loading constellations...